Location: Arbon
(43.0005°N, 0.7472°E)
Time: 22:53:16
(UTC+00:00)

Altair - Pass Details

Date: 02 December 2020
Orbit: 1501 x 1682 km, 47.2° (Epoch: 26 January)

Event Time Altitude Azimuth Distance (km) Brightness Sun altitude
Rises 16:53:37 0° 182° (S) 4,791 10.5 -5.8°
Reaches altitude 10° 16:58:00 10° 166° (SSE) 3,776 9.7 -6.5°
Maximum altitude 17:03:56 19° 126° (SE) 3,110 8.8 -7.5°
Drops below altitude 10° 17:09:45 10° 87° (E) 3,703 8.9 -8.5°
Enters shadow 17:10:31 - 83° (E) 3,856 9.0 -8.6°
Sets 17:13:57 0° 70° (ENE) 4,666 - -9.2°
